Weather in Doha

Qatar     25°17′36″N   51°31′09″E
temp.,
°C
wind,
m/s
gust,
m/s
humid.,
%
clouds,
%
prec.,
mm/h
press.,
hPa
HPBL,
m
22 april, thu
thu2200:00+26ene11351 0.0 101011
03:00+26ene33400 0.0 101012
06:00+26ene22441 0.0 101211
09:00+32sse33251 0.0 1013370
12:00+36se54180 0.0 10111430
15:00+36se64180 0.0 10091016
18:00+31sse55242 0.0 100961
21:00+29ne33363 0.0 101127
23 april, fri
fri2300:00+28ene22410 0.0 100911
03:00+26ese22480 0.0 100911
06:00+26sse22480 0.0 101011
09:00+33ssw44210 0.0 1011490
12:00+36sse33172 0.0 10091811
15:00+37se54160 0.0 10071390
18:00+30ne45360 0.0 100888
21:00+29ne33370 0.0 100933
24 april, sat
sat2400:00+28ene23380 0.0 100812
03:00+27sw11370 0.0 100711
06:00+27ssw33400 0.0 100830
09:00+35ssw34190 0.0 1009489
12:00+37se43170 0.0 10081870
15:00+35e65204 0.0 1006442
18:00+30ne453629 0.0 1007101
21:00+30ene333350 0.0 100823
25 april, sun
sun2500:00+29ene23319 0.0 100811
03:00+27sse33431 0.0 100816
06:00+27s45475 0.0 100964
09:00+33sse34265 0.0 1011569
12:00+37se44152 0.0 10091457
15:00+34e76241 0.0 1007282
18:00+30ne46410 0.0 1008101
21:00+28ne45530 0.0 100860
26 april, mon
mon2600:00+27e23490 0.0 100814
03:00+26se46620 0.0 100773
06:00+26s45642 0.0 100986
09:00+35sse35205 0.0 1009585
12:00+37ese44175 0.0 10081501
15:00+33e8834100 0.0 1006276
18:00+28ene5853100 0.0 1006140
21:00+28se2352100 0.0 100768